Time,TemperatureF,DewpointF,PressureIn,WindDirection,WindDirectionDegrees,WindSpeedMPH,WindSpeedGustMPH,Humidity,HourlyPrecipIn,Conditions,Clouds,dailyrainin,SoftwareType,DateUTC
2013-07-11 00:00:00,78.9,72.9,30.05,SSE,150,4.5,4.5,82,0.00,,---,0.00,VWS V14.01,2013-07-11 04:00:00,
2013-07-11 00:01:00,78.5,72.5,30.05,SE,145,5.6,6.1,82,0.00,,---,0.00,VWS V14.01,2013-07-11 04:01:00,
2013-07-11 00:02:00,78.5,73.9,29.97,SSW,212,2.7,3.7,86,0.00,,---,0.00,VWS V14.01,2013-07-11 04:02:00,
2013-07-11 00:03:00,78.5,73.9,29.97,SW,214,2.5,3.7,86,0.00,,---,0.00,VWS V14.01,2013-07-11 04:03:00,
2013-07-11 00:06:00,78.0,72.2,30.05,South,172,1.5,4.7,82,0.00,,---,0.00,VWS V14.01,2013-07-11 04:06:00,
2013-07-11 00:11:00,79.2,73.6,30.05,SE,128,1.9,3.0,83,0.00,,---,0.00,VWS V14.01,2013-07-11 04:11:00,
2013-07-11 00:16:00,79.0,73.6,30.05,SE,132,3.8,7.6,84,0.00,,---,0.00,VWS V14.01,2013-07-11 04:16:00,
2013-07-11 00:21:00,79.0,73.6,30.05,South,169,4.8,7.3,84,0.00,,---,0.00,VWS V14.01,2013-07-11 04:21:00,
2013-07-11 00:26:00,78.8,73.4,30.05,SSW,194,2.4,4.6,84,0.00,,---,0.00,VWS V14.01,2013-07-11 04:26:00,
2013-07-11 00:31:00,77.9,72.6,30.05,SSE,165,6.5,8.6,84,0.00,,---,0.00,VWS V14.01,2013-07-11 04:31:00,
2013-07-11 00:36:00,78.2,72.9,30.05,SE,143,3.0,8.2,84,0.00,,---,0.00,VWS V14.01,2013-07-11 04:36:00,
2013-07-11 00:41:00,78.5,73.2,30.04,SE,125,1.4,7.6,84,0.00,,---,0.00,VWS V14.01,2013-07-11 04:41:00,
2013-07-11 00:46:00,77.9,72.9,30.04,SE,134,6.7,9.1,84,0.00,,---,0.00,VWS V14.01,2013-07-11 04:46:00,
2013-07-11 00:51:00,77.7,72.4,30.04,SE,145,6.1,8.9,84,0.00,,---,0.00,VWS V14.01,2013-07-11 04:51:00,
2013-07-11 00:56:00,78.4,73.2,30.04,SSE,159,1.4,5.5,84,0.00,,---,0.00,VWS V14.01,2013-07-11 04:56:00,
2013-07-11 01:01:00,78.0,73.1,30.04,SSE,149,3.4,7.1,85,0.00,,---,0.00,VWS V14.01,2013-07-11 05:01:00,
2013-07-11 01:06:00,78.5,73.6,30.03,SE,138,7.3,7.3,85,0.00,,---,0.00,VWS V14.01,2013-07-11 05:06:00,
2013-07-11 01:11:00,78.3,73.5,30.03,SSE,148,1.4,3.5,85,0.00,,---,0.00,VWS V14.01,2013-07-11 05:11:00,
2013-07-11 01:16:00,78.3,73.5,30.03,SSE,156,0.6,6.8,85,0.00,,---,0.00,VWS V14.01,2013-07-11 05:16:00,
2013-07-11 01:21:00,78.4,73.7,30.03,South,169,4.1,4.1,86,0.00,,---,0.00,VWS V14.01,2013-07-11 05:21:00,
2013-07-11 01:26:00,78.2,73.4,30.03,South,188,2.2,3.4,85,0.00,,---,0.00,VWS V14.01,2013-07-11 05:26:00,
2013-07-11 01:31:00,77.9,73.2,30.03,SSE,155,1.7,2.5,85,0.00,,---,0.00,VWS V14.01,2013-07-11 05:31:00,
2013-07-11 01:36:00,77.3,72.7,30.03,South,187,0.6,1.4,86,0.00,,---,0.00,VWS V14.01,2013-07-11 05:36:00,
2013-07-11 01:41:00,76.8,72.1,30.03,SSE,163,1.1,3.9,86,0.00,,---,0.00,VWS V14.01,2013-07-11 05:41:00,
2013-07-11 01:46:00,78.2,73.8,30.03,SSE,149,3.1,4.7,86,0.00,,---,0.00,VWS V14.01,2013-07-11 05:46:00,
2013-07-11 01:51:00,78.1,73.8,30.02,SE,143,0.0,0.0,87,0.00,,---,0.00,VWS V14.01,2013-07-11 05:51:00,
2013-07-11 01:56:00,77.4,73.2,30.02,SE,146,3.2,4.7,87,0.00,,---,0.00,VWS V14.01,2013-07-11 05:56:00,
2013-07-11 02:01:00,77.4,73.3,30.02,South,187,3.9,3.9,87,0.00,,---,0.00,VWS V14.01,2013-07-11 06:01:00,
2013-07-11 02:06:00,78.3,74.1,30.02,SSE,153,2.7,7.5,87,0.00,,---,0.00,VWS V14.01,2013-07-11 06:06:00,
2013-07-11 02:11:00,78.1,73.8,30.02,South,176,2.5,4.1,87,0.00,,---,0.00,VWS V14.01,2013-07-11 06:11:00,
2013-07-11 02:16:00,78.2,73.9,30.02,South,170,5.4,5.8,87,0.00,,---,0.00,VWS V14.01,2013-07-11 06:16:00,
2013-07-11 02:21:00,78.1,73.8,30.02,South,174,3.5,3.8,87,0.00,,---,0.00,VWS V14.01,2013-07-11 06:21:00,
2013-07-11 02:26:00,78.1,73.9,30.02,SSE,167,2.7,5.0,87,0.00,,---,0.00,VWS V14.01,2013-07-11 06:26:00,
2013-07-11 02:31:00,78.0,73.9,30.01,SSW,194,1.8,2.2,87,0.00,,---,0.00,VWS V14.01,2013-07-11 06:31:00,
2013-07-11 02:36:00,77.2,73.1,30.01,South,186,1.4,3.2,87,0.00,,---,0.00,VWS V14.01,2013-07-11 06:36:00,
2013-07-11 02:41:00,77.0,73.0,30.01,SE,142,0.6,3.1,88,0.00,,---,0.00,VWS V14.01,2013-07-11 06:41:00,
2013-07-11 02:46:00,78.0,74.0,30.01,SE,145,0.0,0.0,88,0.00,,---,0.00,VWS V14.01,2013-07-11 06:46:00,
2013-07-11 02:51:00,78.1,74.2,30.01,SE,145,0.0,0.0,88,0.00,,---,0.00,VWS V14.01,2013-07-11 06:51:00,
2013-07-11 02:56:00,77.9,74.0,30.00,SE,134,0.0,0.0,88,0.00,,---,0.00,VWS V14.01,2013-07-11 06:56:00,
2013-07-11 03:01:00,77.3,73.5,30.01,SSE,163,2.9,2.9,88,0.00,,---,0.00,VWS V14.01,2013-07-11 07:01:00,
2013-07-11 03:06:00,77.8,74.2,30.01,SE,143,0.0,0.7,89,0.00,,---,0.00,VWS V14.01,2013-07-11 07:06:00,
2013-07-11 03:11:00,77.9,74.3,30.00,ESE,108,0.0,0.0,89,0.00,,---,0.00,VWS V14.01,2013-07-11 07:11:00,
2013-07-11 03:16:00,77.1,73.6,30.00,SSE,156,2.1,3.5,89,0.00,,---,0.00,VWS V14.01,2013-07-11 07:16:00,
2013-07-11 03:21:00,76.5,73.1,30.00,SSE,160,1.5,1.9,89,0.00,,---,0.00,VWS V14.01,2013-07-11 07:21:00,
2013-07-11 03:26:00,77.9,74.4,30.01,SSE,167,1.7,5.0,89,0.00,,---,0.00,VWS V14.01,2013-07-11 07:26:00,
2013-07-11 03:31:00,77.8,74.3,30.00,South,188,2.5,5.5,89,0.00,,---,0.00,VWS V14.01,2013-07-11 07:31:00,
2013-07-11 03:36:00,77.7,74.2,30.00,SW,228,1.7,4.7,89,0.00,,---,0.00,VWS V14.01,2013-07-11 07:36:00,
2013-07-11 03:41:00,77.9,74.4,30.00,South,184,0.0,0.0,89,0.00,,---,0.00,VWS V14.01,2013-07-11 07:41:00,
2013-07-11 03:46:00,77.5,74.1,30.01,South,184,0.0,0.0,89,0.00,,---,0.00,VWS V14.01,2013-07-11 07:46:00,
2013-07-11 03:51:00,77.1,73.8,30.01,South,190,2.9,5.5,90,0.00,,---,0.00,VWS V14.01,2013-07-11 07:51:00,
2013-07-11 03:56:00,77.4,74.2,30.01,South,190,2.9,3.8,90,0.00,,---,0.00,VWS V14.01,2013-07-11 07:56:00,
2013-07-11 04:01:00,76.7,73.6,30.01,South,169,3.0,3.5,90,0.00,,---,0.00,VWS V14.01,2013-07-11 08:01:00,
2013-07-11 04:06:00,77.7,74.6,30.01,SE,146,0.8,2.1,90,0.00,,---,0.00,VWS V14.01,2013-07-11 08:06:00,
2013-07-11 04:11:00,77.0,74.0,30.00,South,173,3.4,3.7,90,0.00,,---,0.00,VWS V14.01,2013-07-11 08:11:00,
2013-07-11 04:16:00,77.0,74.0,30.00,SSE,166,2.1,2.8,91,0.00,,---,0.00,VWS V14.01,2013-07-11 08:16:00,
2013-07-11 04:21:00,76.4,73.6,30.01,South,187,4.5,4.5,91,0.00,,---,0.00,VWS V14.01,2013-07-11 08:21:00,
2013-07-11 04:26:00,77.0,74.2,30.00,SE,132,0.9,3.1,91,0.00,,---,0.00,VWS V14.01,2013-07-11 08:26:00,
2013-07-11 04:31:00,76.9,74.2,30.00,South,181,1.7,3.2,91,0.00,,---,0.00,VWS V14.01,2013-07-11 08:31:00,
2013-07-11 04:36:00,76.8,74.2,30.00,South,184,4.0,5.5,92,0.00,,---,0.00,VWS V14.01,2013-07-11 08:36:00,
2013-07-11 04:41:00,77.1,74.5,30.00,South,183,1.6,2.4,92,0.00,,---,0.00,VWS V14.01,2013-07-11 08:41:00,
2013-07-11 04:46:00,76.4,73.9,30.00,SSW,207,2.8,2.8,92,0.00,,---,0.00,VWS V14.01,2013-07-11 08:46:00,
2013-07-11 04:51:00,77.2,74.8,30.00,South,180,1.9,2.5,92,0.00,,---,0.00,VWS V14.01,2013-07-11 08:51:00,
2013-07-11 04:56:00,76.9,74.6,30.00,South,181,3.5,3.5,92,0.00,,---,0.00,VWS V14.01,2013-07-11 08:56:00,
2013-07-11 05:01:00,76.4,74.2,30.00,SSW,200,2.7,4.8,93,0.00,,---,0.00,VWS V14.01,2013-07-11 09:01:00,
2013-07-11 05:06:00,76.2,74.1,30.00,SSW,207,1.5,3.1,93,0.00,,---,0.00,VWS V14.01,2013-07-11 09:06:00,
2013-07-11 05:11:00,76.6,74.6,30.00,ESE,115,0.0,2.5,93,0.00,,---,0.00,VWS V14.01,2013-07-11 09:11:00,
2013-07-11 05:16:00,77.1,75.1,30.00,ESE,115,0.0,0.0,94,0.00,,---,0.00,VWS V14.01,2013-07-11 09:16:00,
2013-07-11 05:21:00,76.2,74.3,30.01,ESE,115,0.0,0.0,94,0.00,,---,0.00,VWS V14.01,2013-07-11 09:21:00,
2013-07-11 05:26:00,76.8,74.9,30.00,ESE,115,0.0,0.0,94,0.00,,---,0.00,VWS V14.01,2013-07-11 09:26:00,
2013-07-11 05:31:00,76.0,74.3,30.00,ESE,115,0.0,0.0,95,0.00,,---,0.00,VWS V14.01,2013-07-11 09:31:00,
2013-07-11 05:35:00,77.1,75.6,30.00,SSE,163,3.2,7.5,95,0.00,,---,0.00,VWS V14.01,2013-07-11 09:35:00,
2013-07-11 05:40:00,76.8,75.4,30.01,South,173,1.6,3.7,95,0.00,,---,0.00,VWS V14.01,2013-07-11 09:40:00,
2013-07-11 05:45:00,76.6,75.2,30.01,South,174,0.0,0.0,95,0.00,,---,0.00,VWS V14.01,2013-07-11 09:45:00,
2013-07-11 05:50:00,76.6,75.2,30.01,SW,222,0.8,2.9,95,0.00,,---,0.00,VWS V14.01,2013-07-11 09:50:00,
2013-07-11 05:55:00,77.0,75.6,30.01,SSE,156,0.0,0.0,95,0.00,,---,0.00,VWS V14.01,2013-07-11 09:55:00,
2013-07-11 06:00:00,76.2,74.8,30.01,South,169,0.0,0.0,95,0.00,,---,0.00,VWS V14.01,2013-07-11 10:00:00,
2013-07-11 06:05:00,76.2,74.8,30.01,South,173,0.0,0.0,95,0.00,,---,0.00,VWS V14.01,2013-07-11 10:05:00,
2013-07-11 06:10:00,75.8,74.4,30.01,South,173,0.0,0.0,96,0.00,,---,0.00,VWS V14.01,2013-07-11 10:10:00,
2013-07-11 06:15:00,76.1,74.8,30.01,SSW,212,2.4,2.4,96,0.00,,---,0.00,VWS V14.01,2013-07-11 10:15:00,
2013-07-11 06:20:00,75.7,74.4,30.01,SSW,198,1.0,3.8,96,0.00,,---,0.00,VWS V14.01,2013-07-11 10:20:00,
2013-07-11 06:25:00,76.1,74.8,30.01,South,176,0.0,0.0,96,0.00,,---,0.00,VWS V14.01,2013-07-11 10:25:00,
2013-07-11 06:30:00,76.1,74.8,30.02,South,176,0.0,0.0,96,0.00,,---,0.00,VWS V14.01,2013-07-11 10:30:00,
2013-07-11 06:35:00,76.1,74.8,30.02,SE,143,0.0,0.0,96,0.00,,---,0.00,VWS V14.01,2013-07-11 10:35:00,
2013-07-11 06:40:00,75.9,74.7,30.02,SW,219,2.2,2.3,96,0.00,,---,0.00,VWS V14.01,2013-07-11 10:40:00,
2013-07-11 06:45:00,76.0,74.8,30.02,SSE,155,0.0,1.6,96,0.00,,---,0.00,VWS V14.01,2013-07-11 10:45:00,
2013-07-11 06:50:00,75.9,74.7,30.02,SSE,155,1.0,2.7,96,0.00,,---,0.00,VWS V14.01,2013-07-11 10:50:00,
2013-07-11 06:55:00,76.0,74.8,30.02,South,180,0.0,0.0,96,0.00,,---,0.00,VWS V14.01,2013-07-11 10:55:00,
2013-07-11 07:00:00,75.2,74.0,30.02,SSE,163,0.0,0.0,96,0.00,,---,0.00,VWS V14.01,2013-07-11 11:00:00,
2013-07-11 07:05:00,75.9,74.7,30.02,SSE,153,2.2,3.6,96,0.00,,---,0.00,VWS V14.01,2013-07-11 11:05:00,
2013-07-11 07:10:00,75.1,73.8,30.02,South,169,0.0,0.0,96,0.00,,---,0.00,VWS V14.01,2013-07-11 11:10:00,
2013-07-11 07:15:00,76.3,75.0,30.02,SSW,202,2.9,4.3,96,0.00,,---,0.00,VWS V14.01,2013-07-11 11:15:00,
2013-07-11 07:20:00,76.5,75.2,30.02,SSE,163,1.7,3.7,96,0.00,,---,0.00,VWS V14.01,2013-07-11 11:20:00,
2013-07-11 07:25:00,76.7,75.3,30.02,SE,129,1.1,1.1,96,0.00,,---,0.00,VWS V14.01,2013-07-11 11:25:00,
2013-07-11 07:30:00,76.7,75.3,30.02,South,177,1.9,3.3,96,0.00,,---,0.00,VWS V14.01,2013-07-11 11:30:00,
2013-07-11 07:35:00,76.4,75.0,30.02,SSW,193,4.5,5.0,95,0.00,,---,0.00,VWS V14.01,2013-07-11 11:35:00,
2013-07-11 07:40:00,77.0,75.5,30.02,South,187,3.1,3.1,95,0.00,,---,0.00,VWS V14.01,2013-07-11 11:40:00,
2013-07-11 07:45:00,77.2,75.6,30.02,SW,222,2.8,2.8,95,0.00,,---,0.00,VWS V14.01,2013-07-11 11:45:00,
2013-07-11 07:50:00,76.5,74.5,30.02,South,179,0.0,1.6,94,0.00,,---,0.00,VWS V14.01,2013-07-11 11:50:00,
2013-07-11 07:55:00,76.7,74.5,30.02,SSE,159,5.6,6.0,93,0.00,,---,0.00,VWS V14.01,2013-07-11 11:55:00,
2013-07-11 08:00:00,77.4,75.1,30.02,South,173,2.5,2.5,93,0.00,,---,0.00,VWS V14.01,2013-07-11 12:00:00,
2013-07-11 08:05:00,77.7,75.0,30.02,South,174,1.9,3.7,91,0.00,,---,0.00,VWS V14.01,2013-07-11 12:05:00,
2013-07-11 08:10:00,78.0,74.8,30.02,South,177,5.2,8.0,90,0.00,,---,0.00,VWS V14.01,2013-07-11 12:10:00,
2013-07-11 08:15:00,77.9,74.5,30.02,SSW,200,0.0,1.4,89,0.00,,---,0.00,VWS V14.01,2013-07-11 12:15:00,
2013-07-11 08:20:00,78.1,74.5,30.02,SSW,205,4.0,4.3,89,0.00,,---,0.00,VWS V14.01,2013-07-11 12:20:00,
2013-07-11 08:25:00,78.2,74.4,30.02,SSW,193,9.1,9.1,88,0.00,,---,0.00,VWS V14.01,2013-07-11 12:25:00,
2013-07-11 08:30:00,78.7,74.5,30.02,SW,226,1.7,3.6,87,0.00,,---,0.00,VWS V14.01,2013-07-11 12:30:00,
2013-07-11 08:35:00,79.0,74.5,30.02,SSE,166,2.7,3.1,86,0.00,,---,0.00,VWS V14.01,2013-07-11 12:35:00,
2013-07-11 08:40:00,79.2,74.0,30.02,SSE,162,4.2,6.6,84,0.00,,---,0.00,VWS V14.01,2013-07-11 12:40:00,
2013-07-11 08:45:00,79.4,73.9,30.02,SSE,150,4.5,9.1,83,0.00,,---,0.00,VWS V14.01,2013-07-11 12:45:00,
2013-07-11 08:50:00,79.9,74.1,30.02,SW,224,3.0,3.4,82,0.00,,---,0.00,VWS V14.01,2013-07-11 12:50:00,
2013-07-11 08:55:00,80.2,74.1,30.02,SSW,198,6.0,6.2,82,0.00,,---,0.00,VWS V14.01,2013-07-11 12:55:00,
2013-07-11 09:00:00,79.7,73.2,30.02,SSE,159,1.7,4.3,81,0.00,,---,0.00,VWS V14.01,2013-07-11 13:00:00,
2013-07-11 09:05:00,80.4,73.4,30.02,SW,218,5.8,7.1,79,0.00,,---,0.00,VWS V14.01,2013-07-11 13:05:00,
2013-07-11 09:10:00,80.3,72.7,30.02,SW,231,2.9,3.0,78,0.00,,---,0.00,VWS V14.01,2013-07-11 13:10:00,
2013-07-11 09:15:00,79.7,71.8,30.02,SSW,207,1.9,5.2,77,0.00,,---,0.00,VWS V14.01,2013-07-11 13:15:00,
2013-07-11 09:20:00,81.0,72.3,30.02,WSW,239,4.2,7.1,75,0.00,,---,0.00,VWS V14.01,2013-07-11 13:20:00,
2013-07-11 09:26:00,81.0,72.2,30.02,SSE,150,3.4,4.2,75,0.00,,---,0.00,VWS V14.01,2013-07-11 13:26:00,
2013-07-11 09:31:00,81.0,71.7,30.02,SSE,167,6.9,6.9,73,0.00,,---,0.00,VWS V14.01,2013-07-11 13:31:00,
2013-07-11 09:36:00,82.0,72.2,30.02,SE,136,5.1,9.7,72,0.00,,---,0.00,VWS V14.01,2013-07-11 13:36:00,
2013-07-11 09:41:00,81.5,71.3,30.02,SSE,158,2.1,4.7,71,0.00,,---,0.00,VWS V14.01,2013-07-11 13:41:00,
2013-07-11 09:46:00,82.5,72.1,30.02,South,181,4.5,4.5,71,0.00,,---,0.00,VWS V14.01,2013-07-11 13:46:00,
2013-07-11 09:51:00,81.6,70.4,30.02,SSW,201,6.9,9.0,69,0.00,,---,0.00,VWS V14.01,2013-07-11 13:51:00,
2013-07-11 09:56:00,81.6,70.4,30.03,South,191,2.9,2.9,69,0.00,,---,0.00,VWS V14.01,2013-07-11 13:56:00,
2013-07-11 10:01:00,82.7,71.2,30.02,WSW,243,3.5,8.3,68,0.00,,---,0.00,VWS V14.01,2013-07-11 14:01:00,
2013-07-11 10:06:00,83.3,71.6,30.02,South,187,4.0,4.0,68,0.00,,---,0.00,VWS V14.01,2013-07-11 14:06:00,
2013-07-11 10:11:00,83.5,71.3,30.02,SW,221,3.5,3.5,67,0.00,,---,0.00,VWS V14.01,2013-07-11 14:11:00,
2013-07-11 10:16:00,84.0,72.0,30.02,SSE,158,3.7,7.4,67,0.00,,---,0.00,VWS V14.01,2013-07-11 14:16:00,
2013-07-11 10:21:00,84.4,71.6,30.02,South,170,6.6,10.4,66,0.00,,---,0.00,VWS V14.01,2013-07-11 14:21:00,
2013-07-11 10:26:00,84.1,70.9,30.02,SSW,202,5.5,9.0,65,0.00,,---,0.00,VWS V14.01,2013-07-11 14:26:00,
2013-07-11 10:31:00,84.7,71.2,30.02,SSW,212,3.1,4.7,64,0.00,,---,0.00,VWS V14.01,2013-07-11 14:31:00,
2013-07-11 10:36:00,83.9,70.5,30.02,SSW,208,4.0,7.8,64,0.00,,---,0.00,VWS V14.01,2013-07-11 14:36:00,
2013-07-11 10:41:00,85.4,70.9,30.02,SSW,205,2.9,3.2,62,0.00,,---,0.00,VWS V14.01,2013-07-11 14:41:00,
2013-07-11 10:46:00,84.8,70.4,30.02,SE,136,6.5,6.5,62,0.00,,---,0.00,VWS V14.01,2013-07-11 14:46:00,
2013-07-11 10:51:00,86.5,72.0,30.02,West,262,2.4,2.7,62,0.00,,---,0.00,VWS V14.01,2013-07-11 14:51:00,
2013-07-11 10:56:00,86.8,70.7,30.02,South,183,5.7,9.1,59,0.00,,---,0.00,VWS V14.01,2013-07-11 14:56:00,
2013-07-11 11:01:00,86.5,70.5,30.02,SW,236,5.2,11.3,59,0.00,,---,0.00,VWS V14.01,2013-07-11 15:01:00,
2013-07-11 11:06:00,86.4,70.4,30.02,SSW,208,2.1,6.1,59,0.00,,---,0.00,VWS V14.01,2013-07-11 15:06:00,
2013-07-11 11:11:00,85.9,70.3,30.02,SW,224,1.7,4.4,60,0.00,,---,0.00,VWS V14.01,2013-07-11 15:11:00,
2013-07-11 11:16:00,86.4,70.5,30.02,SSE,165,0.0,6.8,59,0.00,,---,0.00,VWS V14.01,2013-07-11 15:16:00,
2013-07-11 11:21:00,86.5,70.4,30.02,South,186,7.8,10.9,59,0.00,,---,0.00,VWS V14.01,2013-07-11 15:21:00,
2013-07-11 11:26:00,86.5,70.6,30.02,South,170,4.2,4.5,59,0.00,,---,0.00,VWS V14.01,2013-07-11 15:26:00,
2013-07-11 11:31:00,85.2,69.4,30.02,SSE,165,1.3,1.7,59,0.00,,---,0.00,VWS V14.01,2013-07-11 15:31:00,
2013-07-11 11:36:00,85.3,69.1,30.02,WSW,245,4.8,9.1,58,0.00,,---,0.00,VWS V14.01,2013-07-11 15:36:00,
2013-07-11 11:41:00,85.3,68.8,30.02,SSE,165,3.9,4.7,58,0.00,,---,0.00,VWS V14.01,2013-07-11 15:41:00,
2013-07-11 11:46:00,86.1,69.2,30.02,SSW,202,6.6,8.0,57,0.00,,---,0.00,VWS V14.01,2013-07-11 15:46:00,
2013-07-11 11:51:00,86.2,69.4,30.01,SE,129,6.9,7.6,57,0.00,,---,0.00,VWS V14.01,2013-07-11 15:51:00,
2013-07-11 11:56:00,86.9,68.6,30.02,South,190,3.0,9.7,55,0.00,,---,0.00,VWS V14.01,2013-07-11 15:56:00,
2013-07-11 12:01:00,88.4,70.0,30.01,WSW,253,4.0,4.9,55,0.00,,---,0.00,VWS V14.01,2013-07-11 16:01:00,
2013-07-11 12:06:00,87.2,68.9,30.01,West,267,4.1,4.3,55,0.00,,---,0.00,VWS V14.01,2013-07-11 16:06:00,
2013-07-11 12:11:00,87.6,69.2,30.01,West,277,8.8,8.8,55,0.00,,---,0.00,VWS V14.01,2013-07-11 16:11:00,
2013-07-11 12:16:00,87.8,69.4,30.01,SSW,200,2.6,4.5,55,0.00,,---,0.00,VWS V14.01,2013-07-11 16:16:00,
2013-07-11 12:21:00,88.3,69.4,30.00,ENE,70,2.3,2.7,54,0.00,,---,0.00,VWS V14.01,2013-07-11 16:21:00,
2013-07-11 12:26:00,88.0,69.1,30.01,SW,225,4.3,4.5,54,0.00,,---,0.00,VWS V14.01,2013-07-11 16:26:00,
2013-07-11 12:31:00,87.2,68.5,30.01,SSW,200,2.8,7.3,54,0.00,,---,0.00,VWS V14.01,2013-07-11 16:31:00,
2013-07-11 12:36:00,88.5,69.0,30.00,WSW,256,2.7,2.7,53,0.00,,---,0.00,VWS V14.01,2013-07-11 16:36:00,
2013-07-11 12:41:00,88.4,69.1,30.00,South,184,8.0,8.1,53,0.00,,---,0.00,VWS V14.01,2013-07-11 16:41:00,
2013-07-11 12:46:00,87.8,68.8,30.00,SSE,166,5.2,7.4,54,0.00,,---,0.00,VWS V14.01,2013-07-11 16:46:00,
2013-07-11 12:51:00,88.0,69.0,30.00,SSW,195,6.5,6.6,54,0.00,,---,0.00,VWS V14.01,2013-07-11 16:51:00,
2013-07-11 12:56:00,88.8,68.6,30.00,SSW,204,4.4,7.5,52,0.00,,---,0.00,VWS V14.01,2013-07-11 16:56:00,
2013-07-11 13:01:00,88.8,69.2,30.00,South,184,4.1,4.1,52,0.00,,---,0.00,VWS V14.01,2013-07-11 17:01:00,
2013-07-11 13:06:00,87.6,67.0,29.99,SE,124,0.0,0.0,51,0.00,,---,0.00,VWS V14.01,2013-07-11 17:06:00,
2013-07-11 13:11:00,88.3,67.6,29.99,South,188,2.7,3.2,50,0.00,,---,0.00,VWS V14.01,2013-07-11 17:11:00,
2013-07-11 13:16:00,89.4,67.6,29.99,SW,224,7.0,7.0,49,0.00,,---,0.00,VWS V14.01,2013-07-11 17:16:00,
2013-07-11 13:21:00,90.3,68.3,29.99,WSW,238,3.9,4.0,48,0.00,,---,0.00,VWS V14.01,2013-07-11 17:21:00,
2013-07-11 13:26:00,89.1,66.6,29.98,WSW,239,3.7,3.7,48,0.00,,---,0.00,VWS V14.01,2013-07-11 17:26:00,
2013-07-11 13:31:00,89.2,67.7,29.98,SSE,148,3.5,3.5,49,0.00,,---,0.00,VWS V14.01,2013-07-11 17:31:00,
2013-07-11 13:36:00,89.2,66.5,29.98,SSE,149,5.0,7.4,47,0.00,,---,0.00,VWS V14.01,2013-07-11 17:36:00,
2013-07-11 13:41:00,89.6,67.0,29.98,South,181,4.3,6.2,47,0.00,,---,0.00,VWS V14.01,2013-07-11 17:41:00,
2013-07-11 13:46:00,89.3,67.3,29.97,WSW,256,4.7,4.7,48,0.00,,---,0.00,VWS V14.01,2013-07-11 17:46:00,
2013-07-11 13:51:00,89.8,67.8,29.98,SW,231,5.4,5.4,48,0.00,,---,0.00,VWS V14.01,2013-07-11 17:51:00,
2013-07-11 13:56:00,88.7,67.1,29.97,SSW,195,4.5,6.1,49,0.00,,---,0.00,VWS V14.01,2013-07-11 17:56:00,
2013-07-11 14:01:00,89.2,67.7,29.97,SSE,149,5.7,6.0,49,0.00,,---,0.00,VWS V14.01,2013-07-11 18:01:00,
2013-07-11 14:06:00,90.2,68.3,29.97,South,170,2.5,2.5,49,0.00,,---,0.00,VWS V14.01,2013-07-11 18:06:00,
2013-07-11 14:11:00,91.3,68.4,29.97,SSW,210,6.3,6.3,47,0.00,,---,0.00,VWS V14.01,2013-07-11 18:11:00,
2013-07-11 14:16:00,90.9,67.0,29.97,SSW,193,1.6,1.7,46,0.00,,---,0.00,VWS V14.01,2013-07-11 18:16:00,
2013-07-11 14:21:00,91.2,67.9,29.97,SSE,150,4.3,4.3,46,0.00,,---,0.00,VWS V14.01,2013-07-11 18:21:00,
2013-07-11 14:26:00,90.7,65.2,29.97,SW,231,11.9,11.9,43,0.00,,---,0.00,VWS V14.01,2013-07-11 18:26:00,
2013-07-11 14:31:00,91.5,66.8,29.96,WSW,250,4.5,4.5,44,0.00,,---,0.00,VWS V14.01,2013-07-11 18:31:00,
2013-07-11 14:36:00,92.7,67.0,29.96,SW,231,3.2,3.4,43,0.00,,---,0.00,VWS V14.01,2013-07-11 18:36:00,
2013-07-11 14:41:00,92.7,66.3,29.96,SW,219,6.3,7.3,42,0.00,,---,0.00,VWS V14.01,2013-07-11 18:41:00,
2013-07-11 14:46:00,93.1,66.3,29.96,SSW,195,5.3,9.3,42,0.00,,---,0.00,VWS V14.01,2013-07-11 18:46:00,
2013-07-11 14:51:00,93.0,66.6,29.96,South,187,8.7,12.6,42,0.00,,---,0.00,VWS V14.01,2013-07-11 18:51:00,
2013-07-11 14:56:00,92.4,66.0,29.96,West,270,2.9,10.6,42,0.00,,---,0.00,VWS V14.01,2013-07-11 18:56:00,
2013-07-11 15:01:00,92.7,67.0,29.96,South,187,3.4,4.7,43,0.00,,---,0.00,VWS V14.01,2013-07-11 19:01:00,
2013-07-11 15:06:00,91.3,65.3,29.96,SSW,194,3.9,6.0,42,0.00,,---,0.00,VWS V14.01,2013-07-11 19:06:00,
2013-07-11 15:12:00,91.2,65.3,29.95,South,169,4.7,8.1,43,0.00,,---,0.00,VWS V14.01,2013-07-11 19:12:00,
2013-07-11 15:17:00,92.2,66.4,29.95,South,177,6.3,6.3,43,0.00,,---,0.00,VWS V14.01,2013-07-11 19:17:00,
2013-07-11 15:22:00,92.9,66.2,29.94,ESE,120,5.0,6.8,42,0.00,,---,0.00,VWS V14.01,2013-07-11 19:22:00,
2013-07-11 15:27:00,93.4,66.5,29.94,South,188,4.8,4.9,41,0.00,,---,0.00,VWS V14.01,2013-07-11 19:27:00,
2013-07-11 15:32:00,93.1,65.0,29.94,SW,233,3.1,9.1,40,0.00,,---,0.00,VWS V14.01,2013-07-11 19:32:00,
2013-07-11 15:37:00,93.8,65.5,29.93,West,274,1.0,5.7,40,0.00,,---,0.00,VWS V14.01,2013-07-11 19:37:00,
2013-07-11 15:42:00,93.8,65.8,29.93,SSW,212,6.0,10.7,40,0.00,,---,0.00,VWS V14.01,2013-07-11 19:42:00,
2013-07-11 15:47:00,92.6,64.6,29.93,SSE,163,8.3,10.1,40,0.00,,---,0.00,VWS V14.01,2013-07-11 19:47:00,
2013-07-11 15:52:00,92.1,64.6,29.93,WSW,248,6.0,9.8,40,0.00,,---,0.00,VWS V14.01,2013-07-11 19:52:00,
2013-07-11 15:57:00,92.2,64.3,29.93,SSW,205,3.7,7.5,40,0.00,,---,0.00,VWS V14.01,2013-07-11 19:57:00,
2013-07-11 16:02:00,93.3,65.8,29.92,SE,145,1.4,5.1,40,0.00,,---,0.00,VWS V14.01,2013-07-11 20:02:00,
2013-07-11 16:07:00,92.7,66.0,29.92,SE,124,7.9,9.1,42,0.00,,---,0.00,VWS V14.01,2013-07-11 20:07:00,
2013-07-11 16:12:00,93.7,67.8,29.92,SSE,163,4.9,4.9,43,0.00,,---,0.00,VWS V14.01,2013-07-11 20:12:00,
2013-07-11 16:17:00,93.4,66.2,29.92,South,176,9.4,12.7,41,0.00,,---,0.00,VWS V14.01,2013-07-11 20:17:00,
2013-07-11 16:22:00,92.2,65.1,29.92,SSW,194,6.3,7.0,41,0.00,,---,0.00,VWS V14.01,2013-07-11 20:22:00,
2013-07-11 16:27:00,92.4,66.2,29.92,South,186,8.1,8.1,42,0.00,,---,0.00,VWS V14.01,2013-07-11 20:27:00,
2013-07-11 16:32:00,91.9,66.4,29.92,South,170,2.7,3.2,43,0.00,,---,0.00,VWS V14.01,2013-07-11 20:32:00,
2013-07-11 16:37:00,89.1,69.2,29.94,SSE,162,6.9,28.8,52,0.00,,---,0.00,VWS V14.01,2013-07-11 20:37:00,
2013-07-11 16:42:00,86.6,71.4,29.95,SE,142,13.1,13.1,61,0.00,,---,0.00,VWS V14.01,2013-07-11 20:42:00,
2013-07-11 16:47:00,83.7,71.1,29.94,SSE,153,4.6,5.7,66,0.00,,---,0.00,VWS V14.01,2013-07-11 20:47:00,
2013-07-11 16:52:00,82.9,73.7,29.94,SSE,149,2.2,8.5,74,0.00,,---,0.00,VWS V14.01,2013-07-11 20:52:00,
2013-07-11 16:57:00,80.7,72.9,29.93,WSW,239,5.9,5.9,77,0.00,,---,0.00,VWS V14.01,2013-07-11 20:57:00,
2013-07-11 17:02:00,81.2,74.3,29.93,South,191,6.3,6.4,80,0.01,,---,0.01,VWS V14.01,2013-07-11 21:02:00,
2013-07-11 17:07:00,80.3,74.5,29.93,South,176,9.8,10.7,82,0.01,,---,0.01,VWS V14.01,2013-07-11 21:07:00,
2013-07-11 17:12:00,81.9,75.2,29.92,South,180,8.0,10.4,80,0.01,,---,0.01,VWS V14.01,2013-07-11 21:12:00,
2013-07-11 17:17:00,82.3,75.3,29.93,SE,143,2.4,5.3,79,0.01,,---,0.01,VWS V14.01,2013-07-11 21:17:00,
2013-07-11 17:22:00,81.9,73.4,29.93,SSW,201,4.5,8.1,76,0.01,,---,0.01,VWS V14.01,2013-07-11 21:22:00,
2013-07-11 17:27:00,82.6,73.2,29.94,SE,142,7.3,10.1,73,0.01,,---,0.01,VWS V14.01,2013-07-11 21:27:00,
2013-07-11 17:33:00,82.5,73.5,29.94,SSW,197,6.5,7.7,74,0.01,,---,0.01,VWS V14.01,2013-07-11 21:33:00,
2013-07-11 17:38:00,81.8,72.7,29.94,SW,218,5.8,9.6,74,0.01,,---,0.01,VWS V14.01,2013-07-11 21:38:00,
2013-07-11 17:43:00,82.1,72.6,29.93,SSW,195,6.0,8.6,73,0.01,,---,0.01,VWS V14.01,2013-07-11 21:43:00,
2013-07-11 17:48:00,82.8,73.4,29.94,SSE,158,2.9,5.3,73,0.01,,---,0.01,VWS V14.01,2013-07-11 21:48:00,
2013-07-11 17:53:00,82.3,72.5,29.94,SW,218,5.5,9.1,72,0.01,,---,0.01,VWS V14.01,2013-07-11 21:53:00,
2013-07-11 17:58:00,83.0,73.4,29.94,SSW,210,2.2,4.5,73,0.01,,---,0.01,VWS V14.01,2013-07-11 21:58:00,
2013-07-11 18:03:00,82.8,72.8,29.95,SSW,205,3.9,7.7,72,0.00,,---,0.01,VWS V14.01,2013-07-11 22:03:00,
2013-07-11 18:08:00,82.7,72.7,29.95,SE,138,3.8,6.6,72,0.00,,---,0.01,VWS V14.01,2013-07-11 22:08:00,
2013-07-11 18:13:00,82.3,72.3,29.95,SSW,194,4.2,4.5,72,0.00,,---,0.01,VWS V14.01,2013-07-11 22:13:00,
2013-07-11 18:18:00,82.8,72.9,29.94,SSE,163,2.0,4.7,72,0.00,,---,0.01,VWS V14.01,2013-07-11 22:18:00,
2013-07-11 18:23:00,81.4,71.5,29.94,South,174,3.4,3.4,72,0.00,,---,0.01,VWS V14.01,2013-07-11 22:23:00,
2013-07-11 18:28:00,82.8,72.7,29.94,SW,222,4.0,4.6,72,0.00,,---,0.01,VWS V14.01,2013-07-11 22:28:00,
2013-07-11 18:33:00,83.3,72.8,29.94,South,188,3.4,5.1,71,0.00,,---,0.01,VWS V14.01,2013-07-11 22:33:00,
2013-07-11 18:38:00,83.2,72.4,29.93,SSW,202,3.1,4.2,70,0.00,,---,0.01,VWS V14.01,2013-07-11 22:38:00,
2013-07-11 18:43:00,84.1,73.3,29.93,SSE,150,0.6,0.9,70,0.00,,---,0.01,VWS V14.01,2013-07-11 22:43:00,
2013-07-11 18:48:00,84.3,73.2,29.93,SE,142,0.0,0.0,69,0.00,,---,0.01,VWS V14.01,2013-07-11 22:48:00,
2013-07-11 18:53:00,83.4,71.9,29.93,South,179,0.9,1.5,68,0.00,,---,0.01,VWS V14.01,2013-07-11 22:53:00,
2013-07-11 18:58:00,84.3,72.6,29.93,SSW,197,2.0,2.4,68,0.00,,---,0.01,VWS V14.01,2013-07-11 22:58:00,
2013-07-11 19:03:00,85.0,72.9,29.93,South,174,3.5,6.2,67,0.00,,---,0.01,VWS V14.01,2013-07-11 23:03:00,
2013-07-11 19:08:00,85.5,73.9,29.93,SSE,162,1.7,2.5,68,0.00,,---,0.01,VWS V14.01,2013-07-11 23:08:00,
2013-07-11 19:13:00,85.4,73.7,29.93,SSE,163,1.0,3.4,68,0.00,,---,0.01,VWS V14.01,2013-07-11 23:13:00,
2013-07-11 19:19:00,85.0,73.6,29.94,East,83,2.9,2.9,69,0.00,,---,0.01,VWS V14.01,2013-07-11 23:19:00,
2013-07-11 19:24:00,84.9,73.4,29.94,ESE,122,0.0,2.2,69,0.00,,---,0.01,VWS V14.01,2013-07-11 23:24:00,
2013-07-11 19:29:00,84.3,73.0,29.94,South,179,2.9,4.2,69,0.00,,---,0.01,VWS V14.01,2013-07-11 23:29:00,
2013-07-11 19:34:00,84.2,72.9,29.94,SE,129,4.0,6.0,69,0.00,,---,0.01,VWS V14.01,2013-07-11 23:34:00,
2013-07-11 19:39:00,83.7,72.5,29.94,SE,135,4.5,6.2,69,0.00,,---,0.01,VWS V14.01,2013-07-11 23:39:00,
2013-07-11 19:44:00,83.6,72.6,29.94,South,176,4.5,4.6,70,0.00,,---,0.01,VWS V14.01,2013-07-11 23:44:00,
2013-07-11 19:49:00,83.5,72.4,29.94,SE,134,4.7,8.1,69,0.00,,---,0.01,VWS V14.01,2013-07-11 23:49:00,
2013-07-11 19:54:00,84.0,73.1,29.94,South,180,4.0,7.5,70,0.00,,---,0.01,VWS V14.01,2013-07-11 23:54:00,
2013-07-11 19:59:00,83.4,73.1,29.94,South,186,6.2,9.1,71,0.00,,---,0.01,VWS V14.01,2013-07-11 23:59:00,
2013-07-11 20:04:00,83.3,73.4,29.94,SSE,160,3.9,4.0,72,0.00,,---,0.01,VWS V14.01,2013-07-12 00:04:00,
2013-07-11 20:09:00,82.7,73.2,29.94,East,101,2.5,3.7,73,0.00,,---,0.01,VWS V14.01,2013-07-12 00:09:00,
2013-07-11 20:14:00,82.8,73.5,29.94,South,179,0.0,1.6,74,0.00,,---,0.01,VWS V14.01,2013-07-12 00:14:00,
2013-07-11 20:19:00,82.5,73.5,29.94,SE,146,5.5,9.6,74,0.00,,---,0.01,VWS V14.01,2013-07-12 00:19:00,
2013-07-11 20:24:00,81.3,72.4,29.94,ESE,105,4.3,9.6,74,0.00,,---,0.01,VWS V14.01,2013-07-12 00:24:00,
2013-07-11 20:29:00,81.7,73.2,29.95,SE,129,5.5,5.5,75,0.00,,---,0.01,VWS V14.01,2013-07-12 00:29:00,
2013-07-11 20:34:00,81.9,73.6,29.95,SE,146,6.8,6.9,76,0.00,,---,0.01,VWS V14.01,2013-07-12 00:34:00,
2013-07-11 20:39:00,81.4,73.4,29.95,South,173,4.0,5.6,77,0.00,,---,0.01,VWS V14.01,2013-07-12 00:39:00,
2013-07-11 20:44:00,80.2,72.5,29.95,SSE,152,4.9,4.9,77,0.00,,---,0.01,VWS V14.01,2013-07-12 00:44:00,
2013-07-11 20:49:00,80.0,72.7,29.96,ESE,107,5.1,6.6,78,0.00,,---,0.01,VWS V14.01,2013-07-12 00:49:00,
2013-07-11 20:54:00,80.7,73.5,29.96,SSE,149,1.9,2.9,79,0.00,,---,0.01,VWS V14.01,2013-07-12 00:54:00,
2013-07-11 20:59:00,80.3,73.2,29.96,South,170,1.4,2.0,79,0.00,,---,0.01,VWS V14.01,2013-07-12 00:59:00,
2013-07-11 21:04:00,80.4,73.2,29.96,SSW,204,1.9,3.3,79,0.00,,---,0.01,VWS V14.01,2013-07-12 01:04:00,
2013-07-11 21:10:00,80.4,73.3,29.96,SSW,208,3.4,3.4,79,0.00,,---,0.01,VWS V14.01,2013-07-12 01:10:00,
2013-07-11 21:15:00,80.4,73.4,29.96,South,181,3.2,4.8,79,0.00,,---,0.01,VWS V14.01,2013-07-12 01:15:00,
2013-07-11 21:20:00,80.4,73.6,29.96,South,174,2.6,2.9,80,0.00,,---,0.01,VWS V14.01,2013-07-12 01:20:00,
2013-07-11 21:25:00,79.4,72.7,29.97,SSW,195,1.1,2.9,80,0.00,,---,0.01,VWS V14.01,2013-07-12 01:25:00,
2013-07-11 21:30:00,80.1,73.6,29.97,SSE,153,0.0,1.9,80,0.00,,---,0.01,VWS V14.01,2013-07-12 01:30:00,
2013-07-11 21:35:00,79.3,72.9,29.97,South,187,1.4,4.0,81,0.00,,---,0.01,VWS V14.01,2013-07-12 01:35:00,
2013-07-11 21:40:00,80.1,73.8,29.96,SSW,210,1.1,3.5,81,0.00,,---,0.01,VWS V14.01,2013-07-12 01:40:00,
2013-07-11 21:45:00,79.2,73.0,29.96,SSE,156,0.7,0.7,81,0.00,,---,0.01,VWS V14.01,2013-07-12 01:45:00,
2013-07-11 21:50:00,79.9,73.7,29.97,SE,134,0.0,4.3,81,0.00,,---,0.01,VWS V14.01,2013-07-12 01:50:00,
2013-07-11 21:55:00,80.0,73.8,29.97,South,176,3.1,5.6,81,0.00,,---,0.01,VWS V14.01,2013-07-12 01:55:00,
2013-07-11 22:00:00,79.8,73.7,29.96,South,176,2.5,3.0,82,0.00,,---,0.01,VWS V14.01,2013-07-12 02:00:00,
2013-07-11 22:05:00,79.2,73.1,29.96,SE,125,0.2,2.2,82,0.00,,---,0.01,VWS V14.01,2013-07-12 02:05:00,
2013-07-11 22:10:00,79.7,73.7,29.96,South,174,2.7,3.4,82,0.00,,---,0.01,VWS V14.01,2013-07-12 02:10:00,
2013-07-11 22:15:00,79.3,73.3,29.96,SE,138,0.5,2.8,82,0.00,,---,0.01,VWS V14.01,2013-07-12 02:15:00,
2013-07-11 22:20:00,79.0,73.1,29.96,South,186,2.8,2.8,82,0.00,,---,0.01,VWS V14.01,2013-07-12 02:20:00,
2013-07-11 22:25:00,79.2,73.3,29.96,SSW,201,5.1,5.2,82,0.00,,---,0.01,VWS V14.01,2013-07-12 02:25:00,
2013-07-11 22:30:00,79.3,73.3,29.96,SSE,152,0.0,1.4,82,0.00,,---,0.01,VWS V14.01,2013-07-12 02:30:00,
2013-07-11 22:35:00,79.2,73.2,29.96,South,176,1.2,1.2,82,0.00,,---,0.01,VWS V14.01,2013-07-12 02:35:00,
2013-07-11 22:40:00,79.4,73.5,29.96,SSE,167,0.7,0.7,82,0.00,,---,0.01,VWS V14.01,2013-07-12 02:40:00,
2013-07-11 22:45:00,79.3,73.4,29.96,SSE,165,1.9,1.9,82,0.00,,---,0.01,VWS V14.01,2013-07-12 02:45:00,
2013-07-11 22:50:00,78.9,73.2,29.96,SSW,195,2.4,3.7,83,0.00,,---,0.01,VWS V14.01,2013-07-12 02:50:00,
2013-07-11 22:55:00,78.5,72.8,29.96,South,170,2.1,4.3,83,0.00,,---,0.01,VWS V14.01,2013-07-12 02:55:00,
2013-07-11 23:00:00,79.2,73.6,29.96,South,169,1.5,2.8,83,0.00,,---,0.01,VWS V14.01,2013-07-12 03:00:00,
2013-07-11 23:05:00,78.8,73.2,29.96,SSE,165,0.0,1.1,83,0.00,,---,0.01,VWS V14.01,2013-07-12 03:05:00,
2013-07-11 23:10:00,79.0,73.4,29.96,SSW,195,0.0,1.2,83,0.00,,---,0.01,VWS V14.01,2013-07-12 03:10:00,
2013-07-11 23:15:00,79.0,73.5,29.96,SSW,195,2.5,3.1,83,0.00,,---,0.01,VWS V14.01,2013-07-12 03:15:00,
2013-07-11 23:20:00,78.9,73.5,29.96,SSE,150,0.0,0.8,84,0.00,,---,0.01,VWS V14.01,2013-07-12 03:20:00,
2013-07-11 23:25:00,78.2,72.9,29.96,ESE,111,0.0,0.0,84,0.00,,---,0.01,VWS V14.01,2013-07-12 03:25:00,
2013-07-11 23:30:00,78.7,73.6,29.96,ESE,118,1.9,2.1,84,0.00,,---,0.01,VWS V14.01,2013-07-12 03:30:00,
2013-07-11 23:35:00,79.0,74.0,29.97,SSW,208,4.7,7.1,85,0.00,,---,0.01,VWS V14.01,2013-07-12 03:35:00,
2013-07-11 23:40:00,78.9,74.0,29.97,SSW,205,1.7,1.7,85,0.00,,---,0.01,VWS V14.01,2013-07-12 03:40:00,
2013-07-11 23:45:00,78.7,73.9,29.97,SSW,195,3.5,4.3,85,0.00,,---,0.01,VWS V14.01,2013-07-12 03:45:00,
2013-07-11 23:50:00,78.9,74.1,29.97,SW,224,4.6,4.6,85,0.00,,---,0.01,VWS V14.01,2013-07-12 03:50:00,
2013-07-11 23:56:00,78.2,73.5,29.97,SW,215,3.5,3.7,86,0.00,,---,0.01,VWS V14.01,2013-07-12 03:56:00,